Карточка аэропорта UNKL

Внимание!
Информация на этой странице в стадии наполнения.
Если вы не увидели какой-то информации, или заметили неточность - пожалуйста сообщите нам!
Спасибо!
Команда RU-STAFF
Название аэропортаЕмельяново
Название аэропорта (англ.)Yemelyanovo
Превышение942 ft. (287.1 m.)
Координаты56°10.386', 92°29.598'
Высота перехода1100m
Эшелон переходаFL060
Коды ответчика5320-5377
Зона ОрВДКрасноярск РПИ (UNKL)
Данные METARUNKL 251830Z 22005MPS CAVOK 20/16 Q1002 R29/110065 NOSIG RMK QFE726
Проноз погоды (TAF)UNKL 251654Z 2518/2618 23003G08MPS 9999 SCT020CB TEMPO 2518/2521 25008G14MPS TEMPO 2603/2618 26008G16MPS -TSRA
NOTAMshow/hide NOTAM
AWOS   TABLE

Информация о ВПП

ВПП Длина ВПП (м.) Покрытие Курс ВПП Частота ILS
113700Асфальтобетон109110.5
293700Асфальтобетон289111.7

Диспетчерские позиции

Позывной Наименование органа УВД Частота
UNKL_APPКрасноярск-Подход127.7
UNKL_R_APPКрасноярск-Круг122.0
UNKL_TWRКрасноярск-Старт/Посадка118.3
UNKL_GNDКрасноярск-Руление121.9



Спутниковое изображение